QPF
0.00 0.00 0.00 0.01 0.01 0.02 0.04 0.03 0.03 0.02 0.01 0.00 0.00 0.00 0.00 0.00 0.01 0.02 0.02 0.01 0.00 0.00 0.00 0.00 0.00 0.00 0.01 0.02 0.03 0.04 0.04 0.03 0.02 0.02 0.02 0.02 0.01 0.01 0.02 0.03 0.03 0.03 0.04 0.05 0.04 0.05 0.07 0.09 0.09
0.00 0.00 0.00 0.01 0.02 0.06 0.07 0.04 0.03 0.03 0.01 0.00 0.01 0.00 0.00 0.00 0.00 0.00 0.01 0.00 0.00 0.00 0.00 0.00 0.00 0.00 0.01 0.02 0.02 0.03 0.03 0.02 0.02 0.02 0.02 0.02 0.02 0.02 0.03 0.03 0.03 0.03 0.04 0.06 0.08 0.11 0.13 0.10 0.09
0.00 0.00 0.00 0.00 0.02 0.03 0.07 0.07 0.03 0.01 0.01 0.00 0.00 0.00 0.00 0.00 0.00 0.00 0.00 0.00 0.00 0.00 0.00 0.00 0.00 0.00 0.01 0.01 0.02 0.02 0.02 0.02 0.01 0.01 0.01 0.01 0.02 0.03 0.03 0.03 0.03 0.03 0.03 0.04 0.06 0.12 0.16 0.09 0.06
0.00 0.00 0.00 0.00 0.02 0.03 0.07 0.06 0.02 0.01 0.01 0.00 0.00 0.00 0.00 0.01 0.00 0.00 0.00 0.00 0.00 0.00 0.00 0.00 0.00 0.00 0.00 0.01 0.01 0.01 0.02 0.02 0.02 0.02 0.02 0.02 0.02 0.03 0.03 0.04 0.03 0.03 0.03 0.04 0.04 0.05 0.10 0.09 0.06
0.01 0.01 0.01 0.01 0.02 0.02 0.03 0.02 0.01 0.00 0.01 0.00 0.00 0.00 0.00 0.01 0.01 0.00 0.00 0.00 0.00 0.00 0.00 0.00 0.00 0.00 0.00 0.01 0.01 0.01 0.02 0.04 0.04 0.03 0.03 0.03 0.04 0.04 0.04 0.04 0.05 0.04 0.04 0.05 0.05 0.05 0.05 0.05 0.05
0.01 0.01 0.02 0.02 0.01 0.01 0.01 0.01 0.01 0.01 0.01 0.00 0.00 0.00 0.01 0.02 0.01 0.01 0.00 0.00 0.00 0.00 0.00 0.00 0.00 0.00 0.00 0.01 0.01 0.02 0.02 0.05 0.07 0.06 0.05 0.05 0.07 0.06 0.05 0.05 0.06 0.06 0.05 0.06 0.05 0.04 0.03 0.03 0.03
0.00 0.01 0.01 0.01 0.00 0.01 0.01 0.00 0.01 0.00 0.00 0.00 0.00 0.01 0.02 0.02 0.01 0.01 0.01 0.00 0.01 0.01 0.00 0.00 0.00 0.00 0.00 0.00 0.01 0.01 0.02 0.04 0.08 0.11 0.11 0.13 0.10 0.06 0.05 0.05 0.04 0.04 0.04 0.05 0.05 0.03 0.02 0.02 0.02
0.01 0.01 0.01 0.01 0.00 0.00 0.00 0.00 0.00 0.00 0.00 0.00 0.01 0.01 0.03 0.05 0.05 0.03 0.02 0.01 0.01 0.01 0.01 0.00 0.00 0.00 0.00 0.00 0.00 0.01 0.01 0.03 0.06 0.09 0.16 0.20 0.15 0.09 0.07 0.05 0.04 0.05 0.06 0.04 0.04 0.02 0.02 0.01 0.02
0.00 0.01 0.01 0.01 0.01 0.00 0.00 0.00 0.00 0.00 0.00 0.01 0.02 0.01 0.02 0.05 0.07 0.06 0.04 0.03 0.02 0.01 0.01 0.01 0.00 0.00 0.00 0.00 0.00 0.00 0.01 0.02 0.03 0.06 0.11 0.13 0.11 0.09 0.09 0.09 0.08 0.07 0.07 0.05 0.04 0.03 0.02 0.02 0.02
0.00 0.01 0.01 0.01 0.01 0.01 0.00 0.00 0.00 0.00 0.00 0.00 0.01 0.01 0.02 0.04 0.06 0.07 0.08 0.06 0.03 0.02 0.02 0.02 0.01 0.00 0.00 0.00 0.00 0.00 0.00 0.01 0.02 0.03 0.05 0.09 0.11 0.09 0.09 0.11 0.09 0.08 0.08 0.05 0.05 0.04 0.03 0.03 0.03
0.00 0.00 0.00 0.00 0.01 0.01 0.00 0.00 0.00 0.00 0.00 0.01 0.01 0.01 0.02 0.05 0.10 0.05 0.07 0.09 0.06 0.03 0.03 0.03 0.02 0.01 0.01 0.00 0.00 0.00 0.00 0.01 0.01 0.02 0.03 0.04 0.07 0.06 0.05 0.04 0.05 0.05 0.06 0.04 0.03 0.03 0.04 0.03 0.02
0.00 0.00 0.00 0.00 0.00 0.01 0.01 0.00 0.00 0.00 0.00 0.01 0.01 0.01 0.01 0.05 0.09 0.09 0.06 0.06 0.07 0.05 0.04 0.03 0.03 0.03 0.01 0.01 0.00 0.00 0.01 0.01 0.01 0.01 0.02 0.02 0.02 0.03 0.03 0.01 0.02 0.02 0.03 0.02 0.01 0.01 0.04 0.05 0.03
0.00 0.00 0.00 0.00 0.00 0.00 0.00 0.00 0.00 0.00 0.00 0.01 0.03 0.02 0.01 0.02 0.04 0.09 0.09 0.06 0.07 0.08 0.12 0.06 0.04 0.03 0.02 0.01 0.01 0.01 0.01 0.01 0.01 0.02 0.03 0.03 0.02 0.02 0.01 0.01 0.01 0.02 0.03 0.03 0.02 0.01 0.03 0.03 0.04
0.00 0.00 0.00 0.00 0.00 0.00 0.00 0.00 0.00 0.01 0.00 0.00 0.01 0.01 0.01 0.01 0.02 0.03 0.06 0.06 0.04 0.05 0.12 0.07 0.05 0.03 0.02 0.02 0.02 0.02 0.02 0.02 0.01 0.02 0.02 0.03 0.02 0.02 0.01 0.01 0.02 0.03 0.03 0.03 0.03 0.02 0.02 0.03 0.05
0.00 0.00 0.00 0.00 0.00 0.00 0.00 0.00 0.00 0.01 0.01 0.01 0.01 0.01 0.01 0.01 0.02 0.02 0.03 0.06 0.04 0.04 0.04 0.03 0.03 0.03 0.03 0.03 0.03 0.02 0.03 0.03 0.05 0.03 0.02 0.03 0.02 0.02 0.01 0.01 0.01 0.03 0.03 0.04 0.04 0.03 0.02 0.03 0.04
0.00 0.00 0.00 0.00 0.00 0.00 0.00 0.01 0.01 0.01 0.01 0.01 0.01 0.00 0.01 0.01 0.01 0.02 0.03 0.05 0.04 0.04 0.05 0.03 0.02 0.02 0.04 0.03 0.03 0.03 0.02 0.02 0.04 0.05 0.04 0.03 0.02 0.02 0.02 0.01 0.02 0.02 0.02 0.03 0.04 0.04 0.04 0.04 0.05
0.00 0.00 0.00 0.00 0.01 0.00 0.01 0.01 0.01 0.01 0.01 0.01 0.01 0.01 0.01 0.02 0.02 0.01 0.03 0.07 0.04 0.04 0.06 0.05 0.02 0.02 0.03 0.04 0.03 0.03 0.03 0.02 0.02 0.04 0.04 0.05 0.04 0.04 0.03 0.02 0.02 0.02 0.02 0.02 0.03 0.04 0.04 0.04 0.05
0.00 0.00 0.00 0.01 0.01 0.01 0.01 0.01 0.01 0.01 0.02 0.02 0.01 0.01 0.02 0.02 0.02 0.02 0.02 0.05 0.05 0.04 0.06 0.07 0.04 0.02 0.03 0.04 0.04 0.05 0.05 0.03 0.04 0.05 0.06 0.06 0.07 0.07 0.06 0.05 0.05 0.04 0.03 0.03 0.03 0.03 0.04 0.04 0.04
0.00 0.00 0.00 0.00 0.01 0.01 0.01 0.01 0.01 0.01 0.01 0.01 0.02 0.01 0.02 0.02 0.02 0.05 0.03 0.03 0.05 0.07 0.08 0.07 0.05 0.03 0.02 0.03 0.04 0.04 0.04 0.04 0.04 0.05 0.05 0.04 0.05 0.07 0.07 0.06 0.05 0.04 0.03 0.03 0.03 0.04 0.04 0.04 0.03
0.00 0.00 0.00 0.00 0.01 0.01 0.01 0.02 0.02 0.02 0.01 0.01 0.01 0.01 0.01 0.01 0.02 0.05 0.07 0.05 0.05 0.08 0.08 0.07 0.07 0.06 0.05 0.04 0.03 0.03 0.03 0.04 0.06 0.06 0.06 0.06 0.05 0.05 0.05 0.05 0.04 0.03 0.03 0.02 0.02 0.02 0.02 0.03 0.03
0.00 0.00 0.00 0.00 0.01 0.01 0.02 0.02 0.02 0.02 0.01 0.01 0.02 0.02 0.02 0.01 0.01 0.04 0.13 0.17 0.11 0.08 0.08 0.08 0.10 0.11 0.10 0.06 0.04 0.04 0.04 0.05 0.05 0.05 0.07 0.08 0.07 0.04 0.03 0.03 0.03 0.02 0.03 0.02 0.02 0.02 0.02 0.02 0.03
0.00 0.00 0.01 0.01 0.01 0.01 0.01 0.02 0.03 0.02 0.01 0.01 0.03 0.07 0.10 0.05 0.02 0.02 0.06 0.06 0.06 0.06 0.09 0.11 0.10 0.09 0.09 0.06 0.05 0.06 0.05 0.06 0.04 0.03 0.04 0.04 0.04 0.03 0.03 0.02 0.03 0.03 0.03 0.02 0.01 0.02 0.02 0.03 0.03
0.01 0.00 0.00 0.01 0.01 0.01 0.01 0.01 0.02 0.02 0.02 0.02 0.02 0.03 0.07 0.05 0.03 0.03 0.04 0.03 0.03 0.04 0.04 0.05 0.05 0.06 0.06 0.07 0.07 0.07 0.06 0.05 0.04 0.03 0.03 0.03 0.04 0.04 0.03 0.02 0.02 0.02 0.01 0.01 0.01 0.01 0.01 0.02 0.02
0.00 0.00 0.00 0.00 0.01 0.01 0.01 0.01 0.02 0.02 0.01 0.01 0.01 0.02 0.02 0.02 0.01 0.03 0.07 0.04 0.03 0.03 0.04 0.03 0.03 0.03 0.02 0.03 0.04 0.04 0.04 0.03 0.04 0.03 0.03 0.02 0.02 0.04 0.03 0.02 0.03 0.03 0.01 0.01 0.01 0.01 0.01 0.02 0.03
0.00 0.00 0.01 0.01 0.01 0.01 0.00 0.01 0.01 0.01 0.01 0.01 0.01 0.01 0.01 0.01 0.01 0.01 0.04 0.05 0.04 0.03 0.04 0.05 0.05 0.03 0.02 0.02 0.02 0.02 0.03 0.03 0.03 0.04 0.03 0.03 0.03 0.04 0.04 0.05 0.06 0.04 0.02 0.02 0.02 0.01 0.02 0.03 0.04
0.00 0.01 0.02 0.02 0.01 0.01 0.01 0.02 0.03 0.02 0.02 0.02 0.02 0.02 0.02 0.02 0.01 0.01 0.01 0.03 0.04 0.03 0.04 0.05 0.07 0.04 0.02 0.01 0.01 0.02 0.03 0.04 0.03 0.05 0.05 0.03 0.03 0.03 0.05 0.07 0.07 0.07 0.06 0.05 0.04 0.02 0.02 0.03 0.06
0.01 0.01 0.01 0.02 0.02 0.02 0.02 0.03 0.04 0.05 0.05 0.04 0.03 0.03 0.03 0.03 0.02 0.02 0.01 0.02 0.03 0.05 0.05 0.06 0.04 0.03 0.02 0.02 0.02 0.03 0.04 0.05 0.03 0.05 0.05 0.05 0.05 0.04 0.05 0.07 0.07 0.07 0.06 0.06 0.04 0.03 0.02 0.03 0.06
0.01 0.01 0.01 0.02 0.02 0.03 0.03 0.04 0.06 0.07 0.05 0.04 0.04 0.03 0.03 0.04 0.03 0.02 0.02 0.04 0.04 0.08 0.07 0.03 0.03 0.03 0.03 0.03 0.04 0.04 0.05 0.05 0.04 0.05 0.06 0.05 0.05 0.05 0.05 0.06 0.07 0.06 0.04 0.03 0.02 0.02 0.02 0.03 0.03
0.01 0.02 0.02 0.02 0.02 0.03 0.04 0.04 0.04 0.07 0.07 0.06 0.04 0.03 0.04 0.03 0.03 0.02 0.02 0.02 0.02 0.03 0.04 0.03 0.02 0.03 0.03 0.03 0.06 0.05 0.05 0.05 0.05 0.04 0.04 0.04 0.04 0.04 0.05 0.06 0.05 0.04 0.04 0.03 0.03 0.02 0.02 0.02 0.02
0.01 0.01 0.02 0.03 0.03 0.04 0.04 0.04 0.04 0.07 0.07 0.06 0.05 0.07 0.08 0.06 0.03 0.02 0.02 0.01 0.01 0.02 0.03 0.03 0.03 0.04 0.05 0.05 0.05 0.06 0.08 0.08 0.06 0.04 0.04 0.04 0.05 0.04 0.04 0.04 0.03 0.03 0.04 0.04 0.03 0.03 0.02 0.02 0.01
MSLP
1005.12 1006.19 1007.36 1008.47 1009.34 1009.88 1010.04 1009.87 1009.47 1009.00 1008.62 1008.46 1008.58 1008.96 1009.53 1010.17 1010.74 1011.12 1011.26 1011.15 1010.87 1010.51 1010.17 1009.94 1009.87 1009.94 1010.12 1010.35 1010.54 1010.67 1010.72 1010.72 1010.71 1010.73 1010.83 1011.00 1011.23 1011.47 1011.68 1011.80 1011.83 1011.77 1011.67 1011.57 1011.52 1011.56 1011.69 1011.88 1012.11
1005.54 1006.75 1007.96 1008.99 1009.68 1009.97 1009.85 1009.41 1008.78 1008.15 1007.69 1007.51 1007.65 1008.09 1008.73 1009.42 1010.03 1010.46 1010.64 1010.61 1010.41 1010.15 1009.93 1009.83 1009.87 1010.04 1010.30 1010.57 1010.80 1010.94 1011.00 1011.01 1011.00 1011.03 1011.12 1011.28 1011.49 1011.70 1011.87 1011.96 1011.97 1011.91 1011.82 1011.73 1011.69 1011.73 1011.83 1011.99 1012.17
1006.10 1007.38 1008.55 1009.44 1009.92 1009.94 1009.55 1008.86 1008.05 1007.32 1006.82 1006.66 1006.86 1007.37 1008.06 1008.79 1009.43 1009.87 1010.08 1010.09 1009.96 1009.80 1009.68 1009.69 1009.84 1010.11 1010.43 1010.75 1011.01 1011.18 1011.27 1011.29 1011.29 1011.33 1011.41 1011.55 1011.72 1011.88 1012.01 1012.08 1012.07 1012.02 1011.95 1011.90 1011.90 1011.96 1012.07 1012.22 1012.35
1006.75 1008.03 1009.10 1009.80 1010.03 1009.78 1009.15 1008.27 1007.35 1006.58 1006.12 1006.03 1006.31 1006.89 1007.63 1008.39 1009.03 1009.46 1009.67 1009.70 1009.62 1009.53 1009.51 1009.61 1009.84 1010.18 1010.55 1010.90 1011.18 1011.37 1011.47 1011.52 1011.54 1011.59 1011.67 1011.79 1011.93 1012.06 1012.15 1012.19 1012.18 1012.15 1012.12 1012.12 1012.18 1012.29 1012.43 1012.57 1012.69
1007.43 1008.63 1009.53 1009.99 1009.97 1009.48 1008.65 1007.66 1006.71 1005.99 1005.62 1005.65 1006.05 1006.70 1007.48 1008.24 1008.86 1009.27 1009.47 1009.51 1009.47 1009.43 1009.48 1009.65 1009.93 1010.30 1010.68 1011.04 1011.31 1011.50 1011.62 1011.68 1011.73 1011.80 1011.90 1012.03 1012.15 1012.26 1012.33 1012.35 1012.34 1012.34 1012.35 1012.42 1012.53 1012.69 1012.87 1013.03 1013.15
1008.04 1009.09 1009.76 1009.97 1009.69 1009.00 1008.05 1007.02 1006.12 1005.52 1005.31 1005.49 1006.01 1006.75 1007.56 1008.31 1008.89 1009.27 1009.45 1009.50 1009.49 1009.51 1009.62 1009.83 1010.14 1010.50 1010.87 1011.18 1011.43 1011.60 1011.71 1011.79 1011.88 1011.99 1012.13 1012.28 1012.42 1012.52 1012.58 1012.60 1012.60 1012.61 1012.66 1012.77 1012.93 1013.14 1013.35 1013.53 1013.65
1008.50 1009.33 1009.73 1009.67 1009.16 1008.31 1007.30 1006.31 1005.54 1005.12 1005.10 1005.46 1006.11 1006.92 1007.75 1008.48 1009.02 1009.37 1009.54 1009.60 1009.65 1009.73 1009.89 1010.14 1010.46 1010.80 1011.11 1011.36 1011.55 1011.68 1011.78 1011.88 1012.01 1012.17 1012.37 1012.57 1012.74 1012.86 1012.93 1012.95 1012.95 1012.96 1013.03 1013.15 1013.34 1013.56 1013.79 1013.98 1014.10
1008.74 1009.30 1009.42 1009.09 1008.38 1007.42 1006.41 1005.52 1004.92 1004.71 1004.90 1005.44 1006.21 1007.08 1007.91 1008.61 1009.12 1009.44 1009.62 1009.73 1009.83 1009.99 1010.22 1010.52 1010.84 1011.14 1011.40 1011.58 1011.70 1011.78 1011.86 1011.98 1012.15 1012.38 1012.64 1012.90 1013.12 1013.28 1013.35 1013.37 1013.36 1013.37 1013.41 1013.53 1013.70 1013.92 1014.14 1014.33 1014.46
1008.74 1009.02 1008.85 1008.28 1007.41 1006.39 1005.43 1004.68 1004.27 1004.28 1004.67 1005.36 1006.23 1007.13 1007.95 1008.61 1009.08 1009.39 1009.60 1009.76 1009.96 1010.21 1010.52 1010.87 1011.20 1011.49 1011.69 1011.80 1011.86 1011.90 1011.97 1012.10 1012.32 1012.61 1012.94 1013.26 1013.53 1013.72 1013.81 1013.83 1013.80 1013.77 1013.79 1013.87 1014.01 1014.19 1014.39 1014.57 1014.70
1008.54 1008.55 1008.12 1007.35 1006.36 1005.33 1004.44 1003.85 1003.64 1003.85 1004.41 1005.22 1006.14 1007.05 1007.83 1008.45 1008.88 1009.19 1009.43 1009.67 1009.95 1010.31 1010.71 1011.12 1011.48 1011.76 1011.93 1012.01 1012.02 1012.04 1012.10 1012.25 1012.51 1012.86 1013.24 1013.62 1013.93 1014.15 1014.25 1014.26 1014.22 1014.16 1014.14 1014.17 1014.27 1014.42 1014.58 1014.74 1014.86
1008.24 1008.01 1007.37 1006.44 1005.38 1004.37 1003.59 1003.15 1003.12 1003.49 1004.18 1005.06 1005.99 1006.87 1007.60 1008.16 1008.56 1008.86 1009.13 1009.44 1009.82 1010.26 1010.75 1011.22 1011.63 1011.92 1012.08 1012.15 1012.15 1012.16 1012.24 1012.41 1012.70 1013.09 1013.51 1013.92 1014.26 1014.49 1014.61 1014.62 1014.57 1014.49 1014.45 1014.45 1014.51 1014.63 1014.76 1014.90 1015.02
1007.95 1007.52 1006.72 1005.70 1004.62 1003.67 1002.99 1002.69 1002.80 1003.29 1004.05 1004.95 1005.86 1006.68 1007.34 1007.84 1008.20 1008.50 1008.79 1009.15 1009.59 1010.11 1010.66 1011.18 1011.62 1011.93 1012.12 1012.20 1012.22 1012.26 1012.35 1012.56 1012.87 1013.27 1013.71 1014.13 1014.47 1014.71 1014.84 1014.86 1014.82 1014.76 1014.72 1014.72 1014.78 1014.88 1015.00 1015.13 1015.25
1007.76 1007.19 1006.30 1005.24 1004.19 1003.32 1002.75 1002.56 1002.77 1003.32 1004.10 1004.97 1005.83 1006.57 1007.16 1007.59 1007.92 1008.20 1008.51 1008.89 1009.36 1009.90 1010.48 1011.02 1011.48 1011.82 1012.04 1012.15 1012.22 1012.30 1012.43 1012.66 1012.99 1013.38 1013.81 1014.21 1014.55 1014.79 1014.93 1014.98 1014.98 1014.96 1014.97 1015.01 1015.09 1015.20 1015.33 1015.47 1015.58
1007.73 1007.09 1006.17 1005.13 1004.15 1003.36 1002.89 1002.79 1003.04 1003.60 1004.34 1005.15 1005.92 1006.58 1007.10 1007.49 1007.79 1008.06 1008.36 1008.74 1009.21 1009.73 1010.29 1010.82 1011.27 1011.62 1011.87 1012.04 1012.16 1012.30 1012.48 1012.73 1013.06 1013.43 1013.82 1014.18 1014.49 1014.72 1014.88 1014.97 1015.04 1015.10 1015.18 1015.30 1015.44 1015.60 1015.76 1015.90 1016.02
1007.85 1007.19 1006.29 1005.32 1004.43 1003.75 1003.36 1003.30 1003.56 1004.07 1004.73 1005.44 1006.12 1006.70 1007.17 1007.53 1007.82 1008.09 1008.39 1008.75 1009.18 1009.65 1010.15 1010.62 1011.04 1011.39 1011.67 1011.89 1012.08 1012.28 1012.51 1012.79 1013.10 1013.44 1013.77 1014.08 1014.35 1014.56 1014.74 1014.88 1015.03 1015.19 1015.38 1015.58 1015.81 1016.03 1016.22 1016.39 1016.52
1008.04 1007.40 1006.58 1005.72 1004.95 1004.36 1004.04 1003.99 1004.20 1004.62 1005.16 1005.76 1006.33 1006.84 1007.28 1007.64 1007.95 1008.25 1008.56 1008.90 1009.28 1009.68 1010.09 1010.48 1010.85 1011.18 1011.47 1011.74 1012.01 1012.28 1012.56 1012.86 1013.16 1013.45 1013.72 1013.97 1014.18 1014.38 1014.57 1014.77 1014.99 1015.25 1015.54 1015.84 1016.15 1016.43 1016.67 1016.86 1016.99
1008.20 1007.63 1006.93 1006.21 1005.57 1005.09 1004.81 1004.73 1004.86 1005.14 1005.53 1005.98 1006.44 1006.88 1007.31 1007.70 1008.07 1008.42 1008.76 1009.10 1009.44 1009.77 1010.09 1010.40 1010.71 1011.01 1011.32 1011.64 1011.97 1012.30 1012.64 1012.96 1013.25 1013.50 1013.72 1013.90 1014.06 1014.23 1014.43 1014.67 1014.96 1015.30 1015.67 1016.06 1016.42 1016.75 1017.01 1017.22 1017.36
1008.24 1007.77 1007.23 1006.68 1006.19 1005.81 1005.56 1005.43 1005.43 1005.54 1005.74 1006.01 1006.35 1006.73 1007.15 1007.59 1008.04 1008.48 1008.89 1009.26 1009.59 1009.87 1010.12 1010.36 1010.61 1010.89 1011.21 1011.57 1011.96 1012.37 1012.75 1013.10 1013.39 1013.61 1013.77 1013.90 1014.02 1014.17 1014.36 1014.63 1014.97 1015.36 1015.79 1016.21 1016.61 1016.95 1017.22 1017.43 1017.58
1008.08 1007.77 1007.41 1007.07 1006.75 1006.47 1006.23 1006.03 1005.88 1005.78 1005.76 1005.83 1006.02 1006.32 1006.74 1007.24 1007.78 1008.33 1008.84 1009.28 1009.63 1009.90 1010.11 1010.31 1010.52 1010.79 1011.13 1011.53 1011.98 1012.44 1012.88 1013.26 1013.55 1013.75 1013.88 1013.97 1014.06 1014.19 1014.39 1014.67 1015.03 1015.44 1015.88 1016.31 1016.70 1017.03 1017.29 1017.50 1017.65
1007.74 1007.61 1007.48 1007.35 1007.22 1007.04 1006.82 1006.54 1006.21 1005.89 1005.63 1005.48 1005.49 1005.69 1006.08 1006.63 1007.27 1007.94 1008.56 1009.09 1009.50 1009.80 1010.02 1010.20 1010.41 1010.68 1011.04 1011.48 1011.98 1012.49 1012.97 1013.38 1013.68 1013.88 1014.00 1014.08 1014.15 1014.28 1014.48 1014.77 1015.13 1015.54 1015.96 1016.36 1016.72 1017.01 1017.24 1017.43 1017.59
1007.24 1007.33 1007.44 1007.56 1007.62 1007.56 1007.35 1006.99 1006.49 1005.94 1005.42 1005.03 1004.85 1004.92 1005.26 1005.83 1006.54 1007.32 1008.06 1008.69 1009.19 1009.55 1009.80 1010.01 1010.23 1010.52 1010.90 1011.37 1011.92 1012.47 1012.99 1013.42 1013.74 1013.95 1014.07 1014.15 1014.23 1014.37 1014.58 1014.88 1015.24 1015.63 1016.03 1016.38 1016.68 1016.92 1017.11 1017.28 1017.44
1006.67 1006.99 1007.36 1007.73 1007.98 1008.04 1007.86 1007.41 1006.76 1005.98 1005.22 1004.59 1004.20 1004.13 1004.39 1004.94 1005.70 1006.55 1007.39 1008.13 1008.72 1009.15 1009.46 1009.71 1009.96 1010.28 1010.69 1011.19 1011.76 1012.33 1012.87 1013.32 1013.65 1013.88 1014.02 1014.12 1014.23 1014.39 1014.63 1014.94 1015.30 1015.69 1016.05 1016.36 1016.61 1016.80 1016.95 1017.09 1017.26
1006.10 1006.64 1007.26 1007.85 1008.29 1008.46 1008.30 1007.80 1007.02 1006.05 1005.07 1004.22 1003.65 1003.43 1003.58 1004.09 1004.85 1005.74 1006.64 1007.46 1008.13 1008.63 1009.01 1009.32 1009.61 1009.96 1010.40 1010.92 1011.49 1012.08 1012.62 1013.07 1013.41 1013.64 1013.81 1013.94 1014.08 1014.28 1014.55 1014.89 1015.27 1015.65 1016.00 1016.28 1016.49 1016.64 1016.76 1016.89 1017.06
1005.57 1006.30 1007.12 1007.90 1008.49 1008.76 1008.63 1008.10 1007.22 1006.11 1004.97 1003.95 1003.21 1002.85 1002.90 1003.33 1004.06 1004.96 1005.89 1006.75 1007.47 1008.04 1008.48 1008.84 1009.18 1009.56 1010.02 1010.55 1011.12 1011.70 1012.23 1012.67 1013.01 1013.25 1013.43 1013.59 1013.77 1014.01 1014.32 1014.70 1015.10 1015.50 1015.84 1016.11 1016.30 1016.43 1016.53 1016.66 1016.83
1005.08 1005.94 1006.91 1007.81 1008.49 1008.83 1008.73 1008.18 1007.25 1006.07 1004.83 1003.70 1002.85 1002.39 1002.35 1002.71 1003.38 1004.24 1005.16 1006.03 1006.78 1007.38 1007.87 1008.27 1008.66 1009.08 1009.56 1010.10 1010.67 1011.24 1011.75 1012.17 1012.49 1012.73 1012.91 1013.09 1013.30 1013.57 1013.92 1014.33 1014.77 1015.19 1015.55 1015.83 1016.02 1016.15 1016.25 1016.37 1016.54
1004.59 1005.53 1006.55 1007.51 1008.23 1008.58 1008.49 1007.95 1007.02 1005.82 1004.56 1003.40 1002.51 1001.99 1001.89 1002.19 1002.79 1003.59 1004.46 1005.31 1006.05 1006.67 1007.18 1007.63 1008.06 1008.52 1009.03 1009.59 1010.16 1010.72 1011.21 1011.62 1011.92 1012.15 1012.32 1012.50 1012.72 1013.02 1013.39 1013.82 1014.29 1014.73 1015.12 1015.42 1015.63 1015.77 1015.87 1015.99 1016.16
1004.09 1005.02 1006.03 1006.95 1007.64 1007.98 1007.88 1007.35 1006.45 1005.30 1004.09 1002.98 1002.12 1001.61 1001.49 1001.73 1002.27 1003.00 1003.80 1004.58 1005.29 1005.90 1006.43 1006.91 1007.38 1007.89 1008.44 1009.02 1009.62 1010.18 1010.67 1011.06 1011.35 1011.56 1011.73 1011.90 1012.11 1012.40 1012.78 1013.22 1013.70 1014.16 1014.57 1014.89 1015.13 1015.28 1015.40 1015.51 1015.67
1003.57 1004.44 1005.36 1006.19 1006.79 1007.06 1006.94 1006.43 1005.59 1004.54 1003.44 1002.45 1001.68 1001.22 1001.11 1001.33 1001.81 1002.46 1003.17 1003.87 1004.52 1005.10 1005.62 1006.12 1006.64 1007.19 1007.79 1008.42 1009.05 1009.64 1010.15 1010.55 1010.84 1011.04 1011.19 1011.34 1011.54 1011.81 1012.17 1012.60 1013.07 1013.54 1013.96 1014.30 1014.55 1014.72 1014.85 1014.95 1015.08
1003.08 1003.86 1004.65 1005.34 1005.81 1005.99 1005.83 1005.34 1004.59 1003.67 1002.73 1001.89 1001.26 1000.90 1000.83 1001.04 1001.46 1002.01 1002.62 1003.23 1003.79 1004.31 1004.81 1005.32 1005.86 1006.46 1007.12 1007.81 1008.49 1009.13 1009.67 1010.09 1010.40 1010.60 1010.75 1010.89 1011.06 1011.31 1011.64 1012.04 1012.49 1012.94 1013.35 1013.70 1013.97 1014.15 1014.27 1014.37 1014.47
1002.72 1003.40 1004.05 1004.59 1004.93 1005.01 1004.81 1004.35 1003.69 1002.92 1002.16 1001.49 1001.01 1000.76 1000.75 1000.95 1001.31 1001.77 1002.26 1002.74 1003.20 1003.65 1004.10 1004.59 1005.14 1005.78 1006.48 1007.22 1007.96 1008.65 1009.24 1009.70 1010.04 1010.27 1010.43 1010.56 1010.72 1010.94 1011.23 1011.59 1012.01 1012.43 1012.83 1013.17 1013.44 1013.63 1013.74 1013.82 1013.89
Thickness
5826 5825 5823 5811 5790 5771 5769 5788 5805 5810 5817 5829 5834 5827 5814 5805 5794 5784 5808 5815 5810 5804 5801 5798 5796 5795 5793 5791 5789 5787 5785 5784 5782 5781 5779 5777 5776 5774 5773 5772 5771 5770 5768 5766 5764 5763 5762 5761 5760
5825 5824 5814 5797 5772 5755 5767 5794 5804 5814 5825 5833 5832 5826 5816 5809 5816 5810 5810 5811 5809 5805 5802 5799 5796 5794 5792 5790 5788 5786 5784 5782 5781 5779 5778 5776 5774 5773 5772 5771 5769 5768 5766 5765 5763 5761 5760 5760 5759
5824 5822 5801 5782 5767 5762 5776 5800 5811 5823 5833 5833 5825 5825 5817 5810 5816 5814 5815 5813 5808 5804 5801 5799 5796 5794 5791 5789 5787 5785 5783 5781 5779 5777 5776 5775 5773 5771 5770 5769 5768 5766 5765 5763 5762 5760 5759 5759 5758
5818 5806 5793 5774 5769 5784 5795 5807 5819 5820 5827 5831 5824 5813 5817 5826 5824 5821 5818 5813 5807 5803 5801 5798 5795 5793 5790 5788 5786 5783 5781 5779 5777 5776 5774 5773 5771 5770 5768 5767 5766 5765 5763 5762 5760 5759 5758 5758 5757
5811 5791 5774 5763 5774 5795 5810 5819 5824 5819 5821 5824 5822 5806 5806 5824 5829 5823 5817 5813 5807 5802 5800 5798 5795 5792 5789 5787 5784 5782 5779 5777 5776 5774 5773 5771 5770 5768 5767 5765 5764 5762 5761 5760 5759 5758 5757 5757 5756
5793 5780 5759 5755 5774 5798 5812 5823 5823 5819 5819 5821 5817 5805 5803 5821 5821 5818 5816 5811 5808 5804 5800 5796 5794 5791 5788 5786 5783 5780 5778 5776 5774 5772 5771 5769 5768 5766 5765 5763 5762 5761 5760 5759 5758 5757 5757 5756 5755
5783 5771 5761 5767 5775 5790 5812 5825 5820 5817 5815 5819 5822 5803 5802 5812 5818 5818 5813 5809 5805 5802 5798 5794 5792 5789 5787 5784 5781 5778 5776 5774 5772 5770 5769 5767 5766 5764 5763 5762 5760 5760 5759 5758 5757 5756 5755 5755 5754
5792 5773 5766 5769 5776 5787 5813 5822 5824 5820 5817 5828 5825 5804 5798 5810 5817 5814 5808 5804 5801 5798 5795 5792 5790 5787 5785 5782 5780 5777 5774 5772 5770 5769 5767 5766 5764 5763 5761 5761 5759 5758 5757 5757 5756 5755 5754 5753 5753
5797 5764 5755 5769 5779 5791 5811 5813 5819 5829 5822 5822 5823 5819 5818 5819 5816 5807 5799 5795 5793 5792 5791 5789 5787 5785 5783 5781 5778 5776 5773 5771 5769 5767 5766 5764 5763 5761 5760 5759 5758 5757 5756 5755 5754 5754 5753 5752 5751
5782 5757 5767 5788 5796 5799 5808 5810 5815 5815 5808 5807 5811 5816 5819 5816 5810 5801 5794 5790 5789 5788 5788 5787 5786 5784 5781 5779 5776 5774 5772 5769 5767 5765 5763 5762 5760 5759 5758 5757 5756 5756 5755 5754 5753 5752 5752 5751 5750
5782 5772 5785 5796 5806 5808 5806 5810 5816 5808 5797 5803 5804 5806 5810 5808 5804 5799 5794 5792 5791 5790 5788 5787 5785 5783 5780 5778 5775 5772 5770 5768 5766 5764 5762 5760 5758 5757 5756 5755 5754 5753 5753 5752 5751 5750 5750 5750 5749
5782 5788 5795 5800 5809 5807 5806 5809 5808 5807 5807 5817 5817 5813 5808 5802 5799 5797 5793 5791 5791 5789 5788 5786 5785 5781 5779 5777 5774 5771 5769 5766 5764 5762 5761 5759 5757 5755 5754 5753 5752 5751 5750 5749 5748 5748 5748 5748 5747
5779 5786 5797 5804 5806 5807 5808 5806 5804 5805 5815 5818 5815 5810 5805 5801 5798 5797 5796 5793 5790 5787 5786 5785 5784 5781 5778 5775 5772 5769 5767 5765 5763 5761 5759 5758 5756 5754 5752 5751 5750 5749 5748 5747 5746 5746 5746 5746 5746
5782 5788 5793 5799 5801 5804 5801 5801 5800 5801 5812 5809 5807 5803 5802 5799 5797 5794 5791 5789 5788 5786 5785 5783 5781 5780 5777 5774 5772 5769 5766 5764 5762 5760 5758 5757 5755 5753 5751 5750 5749 5748 5747 5746 5745 5745 5744 5744 5744
5785 5779 5783 5793 5797 5800 5797 5785 5793 5803 5807 5801 5800 5800 5798 5795 5795 5793 5792 5791 5789 5787 5784 5781 5779 5777 5775 5772 5770 5768 5765 5763 5761 5759 5757 5755 5754 5752 5750 5749 5748 5747 5746 5745 5744 5743 5743 5742 5742
5772 5763 5758 5782 5793 5796 5782 5762 5790 5802 5800 5794 5795 5796 5793 5791 5792 5793 5793 5791 5789 5786 5782 5779 5778 5774 5772 5770 5768 5766 5764 5762 5760 5757 5756 5754 5752 5750 5748 5747 5746 5746 5744 5743 5742 5740 5738 5738 5738
5748 5742 5749 5768 5789 5789 5776 5765 5786 5797 5794 5790 5791 5792 5790 5787 5787 5790 5791 5789 5787 5784 5780 5776 5775 5771 5769 5767 5765 5763 5761 5759 5758 5756 5754 5752 5750 5749 5747 5745 5744 5743 5742 5740 5739 5737 5736 5734 5733
5731 5739 5748 5756 5776 5779 5769 5768 5781 5790 5791 5787 5788 5788 5786 5783 5784 5788 5788 5787 5784 5781 5777 5773 5771 5768 5766 5763 5761 5758 5756 5755 5754 5753 5752 5750 5748 5747 5745 5743 5741 5741 5739 5737 5736 5734 5733 5731 5731
5745 5742 5742 5757 5775 5769 5763 5765 5773 5782 5783 5782 5782 5782 5781 5781 5784 5785 5785 5784 5780 5775 5771 5768 5765 5763 5762 5759 5755 5752 5750 5750 5749 5749 5749 5748 5746 5744 5742 5740 5738 5737 5735 5734 5733 5731 5729 5727 5727
5742 5736 5740 5755 5770 5767 5759 5761 5771 5777 5778 5780 5779 5778 5778 5777 5778 5778 5778 5777 5774 5771 5767 5764 5762 5760 5759 5757 5755 5753 5750 5748 5747 5747 5746 5746 5744 5743 5741 5738 5736 5734 5733 5731 5729 5727 5724 5723 5724
5739 5736 5740 5744 5757 5761 5754 5746 5756 5769 5774 5777 5777 5778 5778 5777 5775 5774 5773 5772 5770 5767 5764 5762 5759 5757 5755 5753 5751 5749 5745 5743 5741 5741 5741 5742 5741 5740 5738 5736 5734 5732 5730 5728 5726 5725 5721 5718 5719
5731 5751 5752 5749 5738 5729 5740 5715 5739 5755 5760 5766 5769 5770 5772 5775 5775 5773 5771 5768 5767 5766 5764 5761 5757 5754 5751 5750 5747 5743 5740 5737 5738 5738 5738 5739 5738 5737 5736 5734 5732 5730 5728 5726 5724 5722 5720 5717 5714
5743 5756 5752 5748 5735 5725 5728 5714 5726 5745 5746 5756 5764 5767 5770 5771 5772 5770 5770 5768 5766 5764 5762 5759 5755 5751 5749 5747 5745 5742 5739 5737 5736 5736 5735 5734 5734 5733 5732 5730 5728 5727 5725 5723 5721 5719 5717 5715 5713
5754 5748 5742 5733 5718 5704 5720 5713 5714 5732 5746 5754 5762 5765 5767 5768 5768 5767 5767 5765 5762 5760 5757 5754 5750 5748 5746 5745 5743 5740 5737 5735 5733 5731 5730 5729 5729 5729 5729 5727 5725 5723 5722 5720 5719 5717 5715 5713 5711
5740 5716 5695 5693 5687 5695 5722 5714 5716 5742 5756 5758 5759 5761 5764 5765 5763 5761 5760 5758 5756 5753 5751 5749 5746 5743 5743 5741 5739 5738 5737 5734 5731 5729 5727 5725 5724 5723 5724 5724 5722 5720 5719 5717 5715 5713 5711 5710 5709
5728 5715 5688 5679 5680 5695 5714 5707 5722 5749 5758 5760 5759 5760 5760 5759 5758 5757 5757 5755 5752 5750 5748 5745 5742 5740 5739 5737 5736 5736 5734 5732 5729 5727 5725 5723 5721 5721 5721 5720 5718 5717 5715 5714 5711 5710 5708 5707 5706
5724 5713 5715 5695 5694 5689 5696 5710 5727 5742 5744 5747 5749 5751 5750 5752 5752 5751 5751 5750 5748 5747 5745 5743 5740 5737 5736 5734 5733 5731 5730 5728 5726 5724 5722 5720 5719 5719 5717 5716 5714 5713 5711 5709 5707 5705 5704 5703 5702
5732 5723 5700 5687 5676 5673 5688 5698 5705 5721 5727 5735 5737 5738 5740 5743 5744 5745 5745 5745 5744 5744 5742 5741 5739 5735 5733 5730 5729 5727 5725 5724 5722 5720 5717 5716 5716 5715 5713 5711 5710 5708 5706 5704 5702 5701 5700 5698 5698
5719 5714 5701 5687 5684 5672 5670 5686 5720 5722 5727 5728 5731 5733 5734 5735 5736 5738 5739 5740 5739 5739 5737 5735 5733 5730 5728 5726 5724 5722 5721 5719 5717 5716 5714 5713 5712 5711 5709 5707 5705 5704 5701 5700 5697 5696 5696 5694 5693
5722 5712 5698 5681 5679 5678 5672 5684 5724 5723 5725 5725 5726 5729 5731 5732 5731 5731 5732 5732 5731 5731 5731 5729 5728 5725 5723 5722 5719 5717 5715 5714 5711 5710 5710 5709 5708 5706 5705 5703 5701 5700 5698 5695 5693 5691 5691 5689 5687